x

8413320 - Bar Harbor, Me (atgm1) Weather Station

1:54 - Wed 24th Aug 2016 All times are EDT. -4 hours from GMT.

  • Wind
    11mph, 16mph gusts
  • Sea Temp 57°f
  • Luft Temp 66°f
  • Sea Pressure 1020.3mb
  • 8413320 - Bar Harbor, Me
  • 8413320 - Bar Harbor, Me

More Historic Weather Station data

Upgrade to MSW Pro to gain access to the past 30 days of data for over 8000 Wavebouys and Weather Stations around the globe.

Join Pro

Comparision Forecast

View Surf forecast
   
Mi 08/24 1:54 11 16 mph 1020.3mb 57f 66f
1:48 11 16 mph 1020.4mb 57f 67f
1:42 10 15 mph 1020.5mb 58f 67f
1:36 10 15 mph 1020.5mb 58f 67f
1:30 11 16 mph 1020.5mb 57f 67f
1:24 14 17 mph 1020.5mb 58f 67f
1:18 9 16 mph 1020.6mb 57f 67f
1:12 9 16 mph 1020.6mb 57f 67f
1:06 11 18 mph 1020.5mb 57f 67f
1:00 13 18 mph 1020.6mb 58f 67f
12:54 11 18 mph 1020.6mb 58f 67f
12:48 13 21 mph 1020.6mb 58f 67f
12:42 14 21 mph 1020.6mb 59f 67f
12:36 14 21 mph 1020.7mb 59f 67f
12:30 13 22 mph 1020.9mb 58f 67f
12:24 13 22 mph 1020.9mb 58f 67f
12:18 16 22 mph 1020.9mb 58f 67f
12:12 15 21 mph 1020.9mb 58f 67f
12:06 15 25 mph 1020.8mb 58f 67f
12:00 14 21 mph 1020.8mb 58f 67f
Di 08/23 11:54 13 18 mph 1020.8mb 58f 68f
11:48 13 20 mph 1020.9mb 59f 68f
11:42 11 17 mph 1020.9mb 59f 68f
11:36 13 17 mph 1020.8mb 59f 68f
11:30 10 16 mph 1020.9mb 59f 68f
11:24 11 17 mph 1020.8mb 59f 68f
11:18 10 17 mph 1020.9mb 59f 68f
11:12 9 14 mph 1020.9mb 59f 68f
11:06 11 16 mph 1020.8mb 59f 68f
11:00 10 15 mph 1020.7mb 59f 68f
10:54 9 15 mph 1020.7mb 60f 68f
10:48 10 16 mph 1020.7mb 60f 68f
10:42 10 14 mph 1020.7mb 60f 68f
10:36 9 14 mph 1020.7mb 60f 68f
10:30 9 16 mph 1020.6mb 60f 68f
10:24 8 14 mph 1020.6mb 60f 68f
10:18 8 16 mph 1020.7mb 60f 68f
10:12 8 15 mph 1020.6mb 60f 68f
10:06 7 15 mph 1020.6mb 60f 68f
10:00 8 13 mph 1020.6mb 60f 68f
9:54 8 13 mph 1020.6mb 60f 68f
9:48 11 15 mph 1020.5mb 60f 68f
9:42 8 14 mph 1020.6mb 60f 68f
9:36 9 14 mph 1020.6mb 60f 68f
9:30 8 13 mph 1020.6mb 60f 68f
9:24 9 13 mph 1020.5mb 60f 68f
9:18  -  mph 1020.4mb 60f 68f
9:12  -  mph 1020.4mb 60f 68f
9:06  -  mph 1020.4mb 60f 68f
9:00  -  mph 1020.3mb 60f 68f
8:54  -  mph 1020.2mb 60f 68f
8:48 11 18 mph 1020.2mb 60f 68f
8:42 10 15 mph 1020.1mb 60f 68f
8:36 10 18 mph 1020.2mb 60f 68f
8:30  -  mph 1020.1mb 60f 68f
8:24  -  mph 1020.1mb 60f 68f
8:18  -  mph 1020.1mb 60f 68f
8:12  -  mph 1020mb 60f 69f
8:06  -  mph 1019.9mb 60f 69f
8:00 10 20 mph 1019.8mb 60f 69f
7:54 10 16 mph 1019.7mb 60f 69f
7:48 11 17 mph - 60f -
7:42 9 15 mph - 60f -
7:36 10 17 mph - 60f -
7:30 9 20 mph 1019.6mb 60f 69f
7:24 10 21 mph 1019.6mb 60f 69f
7:18  -  mph 1019.5mb 60f 70f
7:12  -  mph 1019.6mb 60f 70f
7:06  -  mph 1019.6mb 60f 70f
7:00 11 20 mph 1019.5mb 60f 70f
6:54 11 17 mph 1019.5mb 60f 70f
6:48  -  mph - 60f 70f
6:42  -  mph - 59f 71f
6:36  -  mph - 59f 71f
6:30 13 17 mph 1019.5mb 60f 71f
6:24 10 15 mph 1019.5mb 60f 71f
6:18 9 14 mph 1019.4mb 60f 71f
6:12 10 17 mph 1019.5mb 60f 71f
6:06 11 18 mph 1019.4mb 60f 71f
6:00  -  mph 1019.5mb 60f 72f
5:54  -  mph 1019.6mb 60f 72f
5:48 6 13 mph - 60f 73f
5:42 7 11 mph - 60f 73f
5:36 6 10 mph - 60f 73f
5:30 6 14 mph 1019.7mb 60f 73f
5:24 10 13 mph 1019.7mb 60f 73f
5:18 9 14 mph 1019.7mb 60f 73f
5:12 8 16 mph 1019.7mb 60f 73f
5:06 9 14 mph 1019.7mb 60f 73f
5:00 11 17 mph 1019.6mb 60f 73f
4:54 10 16 mph 1019.7mb 60f 73f
4:48 10 16 mph 1019.7mb 60f 73f
4:42 13 17 mph 1019.7mb 60f 73f
4:36 11 16 mph 1019.8mb 60f 73f
4:30 9 14 mph 1019.9mb 59f 73f
4:24 8 13 mph 1020mb 59f 74f
4:18 8 14 mph 1020mb 57f 74f
4:12 11 16 mph 1020mb 57f 73f
4:06 10 15 mph 1020mb 57f 74f
4:00 9 17 mph 1020.1mb 59f 74f
3:54 10 18 mph 1020mb 58f 74f
3:48 9 16 mph 1020mb 58f 74f
3:42 8 15 mph 1019.9mb 58f 74f
3:36 7 17 mph 1020mb 58f 74f
3:30 9 17 mph 1020mb 58f 74f
3:24 9 16 mph 1020.1mb 57f 74f
3:18 11 18 mph 1020.1mb 57f 74f
3:12 9 16 mph 1020.1mb 58f 74f
3:06 11 17 mph 1020.1mb 58f 73f
3:00 8 14 mph 1020.1mb 58f 75f
2:54 9 15 mph 1020.1mb 58f 74f
2:48 11 16 mph 1020.1mb 58f 74f
2:42 10 16 mph 1020.1mb 58f 74f
2:36 13 17 mph 1020.1mb 57f 74f
2:30 10 15 mph 1020.2mb 57f 74f
2:24 11 18 mph 1020.2mb 57f 74f
2:18 11 15 mph 1020.3mb 57f 74f
2:12 10 17 mph 1020.3mb 57f 74f
2:06 9 14 mph 1020.3mb 58f 74f
2:00 7 15 mph 1020.3mb 58f 74f
1:54 10 16 mph 1020.4mb 58f 74f
1:48 11 16 mph 1020.3mb 58f 74f
1:42 11 15 mph 1020.4mb 58f 73f
1:36 5 13 mph 1020.4mb 58f 74f
1:30 14 17 mph 1020.4mb 58f 73f
1:24 8 16 mph 1020.4mb 58f 73f
1:18 9 15 mph 1020.4mb 58f 73f
1:12 8 10 mph 1020.3mb 58f 73f
1:06 10 16 mph 1020.3mb 59f 73f
1:00 6 16 mph 1020.4mb 59f 73f
12:54 6 16 mph 1020.5mb 59f 73f
12:48 9 15 mph 1020.5mb 58f 73f
12:42 14 18 mph 1020.4mb 59f 72f
12:36 9 14 mph 1020.4mb 59f 72f
12:30 13 16 mph 1020.3mb 59f 72f
12:24 9 18 mph 1020.4mb 59f 72f
12:18 10 17 mph 1020.3mb 60f 72f
12:12 10 16 mph 1020.3mb 59f 72f
12:06 10 17 mph 1020.2mb 60f 72f
12:00 10 18 mph 1020.3mb 59f 71f
11:54 11 21 mph 1020.3mb 60f 72f
11:48 14 18 mph 1020.4mb 60f 71f
11:42 10 20 mph 1020.4mb 60f 71f
11:36 13 18 mph 1020.3mb 60f 70f
11:30 11 21 mph 1020.3mb 60f 70f
11:24 16 20 mph 1020.2mb 59f 70f
11:18 11 18 mph 1020.2mb 60f 70f
11:12 15 20 mph 1020.2mb 60f 70f
11:06 14 20 mph 1020.2mb 60f 69f
11:00 16 22 mph 1020.2mb 59f 69f
10:54 14 22 mph 1020.3mb 59f 69f
10:48 10 15 mph 1020.3mb 59f 69f
10:42 14 20 mph 1020.3mb 59f 69f
10:36 13 18 mph 1020.4mb 59f 68f
10:30 14 18 mph 1020.4mb 59f 68f
10:24 11 15 mph 1020.4mb 59f 68f
10:18 10 16 mph 1020.4mb 59f 68f
10:12 14 20 mph 1020.4mb 59f 67f
10:06 10 17 mph 1020.4mb 59f 67f
10:00 13 17 mph 1020.4mb 59f 67f
9:54 11 15 mph 1020.4mb 59f 67f
9:48 11 16 mph 1020.4mb 59f 66f
9:42 10 17 mph 1020.6mb 59f 66f
9:36 9 14 mph 1020.6mb 59f 65f
9:30 9 15 mph 1020.6mb 59f 65f
9:24 10 14 mph 1020.6mb 59f 65f
9:18 10 13 mph 1020.4mb 59f 65f
9:12 8 14 mph 1020.5mb 59f 65f
9:06 11 16 mph 1020.4mb 59f 65f
9:00 9 13 mph 1020.4mb 59f 65f
8:54 13 14 mph 1020.3mb 59f 64f
8:48 9 17 mph 1020.3mb 59f 64f
8:42 10 15 mph 1020.3mb 59f 64f
8:36 10 14 mph 1020.3mb 59f 64f
8:30 13 17 mph 1020.2mb 59f 64f
8:24 11 18 mph 1020.2mb 59f 63f
8:18 11 16 mph 1020.1mb 59f 63f
8:12 13 18 mph 1020mb 59f 63f
8:06 13 16 mph 1020mb 59f 62f
8:00 15 20 mph 1020mb 59f 62f
7:54 13 16 mph 1019.9mb 59f 62f
7:48 13 16 mph 1019.9mb 59f 62f
7:42 14 17 mph 1019.9mb 59f 62f
7:36 11 17 mph 1019.8mb 59f 62f
7:30 13 18 mph 1019.8mb 59f 62f
7:24 11 17 mph 1019.7mb 59f 61f
7:18 13 15 mph 1019.6mb 59f 61f
7:12 11 14 mph 1019.6mb 59f 61f
7:06 10 16 mph 1019.6mb 59f 60f
7:00 10 14 mph 1019.6mb 59f 60f
6:54 11 16 mph 1019.5mb 59f 60f
6:48 14 17 mph 1019.4mb 59f 61f
6:42 13 17 mph 1019.3mb 59f 61f
6:36 9 14 mph 1019.3mb 59f 60f
6:30 11 15 mph 1019.3mb 59f 60f
6:24 9 15 mph 1019.3mb 59f 60f
6:18 9 13 mph 1019.3mb 59f 60f
6:12 7 14 mph 1019.3mb 59f 59f
6:06 8 14 mph 1019.3mb 59f 59f
6:00 8 13 mph 1019.2mb 59f 59f
5:54 8 11 mph 1019.2mb 59f 59f
5:48 9 14 mph 1019.2mb 59f 59f
5:42 8 11 mph 1019mb 59f 59f
5:36 7 11 mph 1018.8mb 59f 59f
5:30 8 11 mph 1018.8mb 59f 59f
5:24 7 14 mph 1018.8mb 59f 59f
5:18 7 11 mph 1018.8mb 59f 58f
5:12 7 15 mph 1018.7mb 59f 58f
5:06 9 14 mph 1018.5mb 59f 59f
5:00 9 14 mph 1018.4mb 59f 59f
4:54 9 11 mph 1018.3mb 59f 59f
4:48 8 11 mph 1018.2mb 59f 59f
4:42 8 10 mph 1018.2mb 59f 58f
4:36 8 11 mph 1018.2mb 59f 58f
4:30 7 11 mph 1018.1mb 59f 58f
4:24 9 14 mph 1018.1mb 59f 59f
4:18 8 13 mph 1018.1mb 59f 59f
4:12 9 10 mph 1018.2mb 59f 58f
4:06 7 10 mph 1018mb 59f 58f
4:00 8 10 mph 1017.8mb 59f 58f
3:54 8 9 mph 1017.8mb 59f 58f
3:48 8 10 mph 1017.8mb 58f 58f
3:42 8 11 mph 1017.9mb 58f 58f
3:36 8 10 mph 1017.9mb 58f 58f
3:30 9 10 mph 1017.9mb 58f 58f
3:24 9 13 mph 1017.9mb 59f 59f
3:18 10 16 mph 1017.8mb 59f 59f
3:12 10 13 mph 1017.6mb 59f 59f
3:06 7 13 mph 1017.6mb 59f 59f
3:00 8 13 mph 1017.6mb 59f 59f
2:54 8 15 mph 1017.6mb 59f 59f
2:48 9 14 mph 1017.5mb 59f -
2:42 9 16 mph 1017.5mb 59f -
2:36 9 14 mph 1017.3mb 59f -
2:30 8 16 mph 1017.3mb 58f 59f
2:24 8 14 mph 1017.2mb 58f 59f
2:18 9 14 mph 1017.2mb 58f 59f
2:12 10 15 mph 1017.3mb 58f 59f
2:06 9 16 mph 1017.2mb 58f 60f
2:00 11 17 mph 1017mb 58f 59f
1:54 10 17 mph 1016.9mb 58f 59f
1:48 13 18 mph 1016.7mb - -
1:42 9 15 mph 1016.7mb - -
1:36 10 20 mph 1016.7mb - -
1:30 11 16 mph 1016.5mb 59f 60f
1:24 10 15 mph 1016.4mb 59f 60f
1:18 10 17 mph 1016.3mb 58f 60f
1:12 13 18 mph 1016.3mb 58f 60f
1:06 13 20 mph 1016.3mb 58f 60f
1:00 13 18 mph 1016.2mb 59f 60f
12:54 15 21 mph 1016.1mb 59f 60f
12:48 15 20 mph 1016.1mb 59f 60f
12:42 14 20 mph 1016mb 59f 60f
12:36 16 23 mph 1015.9mb 58f 61f
12:30 14 20 mph 1015.9mb 58f 60f
12:24 14 21 mph 1015.8mb 59f 60f
12:18 15 21 mph 1015.8mb 59f 60f
12:12 15 21 mph 1015.8mb 59f 60f
12:06 16 23 mph 1015.7mb 59f 60f
12:00 13 20 mph 1015.6mb 59f 60f
Mo 08/22 11:54 14 18 mph 1015.5mb 59f 60f
11:48 14 18 mph 1015.4mb 59f 60f
11:42 13 16 mph 1015.4mb 59f 60f
11:36 13 17 mph 1015.4mb 59f 60f
11:30 14 18 mph 1015.3mb 59f 60f
11:24 13 17 mph 1015.3mb 59f 61f
11:18 15 20 mph 1015.2mb 59f 61f
11:12 14 18 mph 1015mb 59f 61f
11:06 14 18 mph 1014.9mb 59f 61f
11:00 16 20 mph 1014.8mb 59f 61f
10:54 15 18 mph 1014.8mb 59f 61f
10:48 14 17 mph 1014.8mb 59f 61f
10:42 13 20 mph 1014.8mb 59f 61f
10:36 16 20 mph 1014.6mb 59f 62f
10:30 15 20 mph 1014.6mb 59f 61f
10:24 15 20 mph 1014.5mb 59f 62f
10:18 14 20 mph - 59f 62f
10:12 14 17 mph - 59f 62f
10:06 15 17 mph - 59f 62f
10:00  -  mph 1014.2mb 59f 62f
9:54  -  mph 1014.1mb 59f 62f
9:48 16 21 mph 1014.1mb 59f 62f
9:42 17 22 mph 1014.1mb 59f 62f
9:36 16 22 mph 1014mb 59f 62f
9:30 17 23 mph 1013.9mb 59f 63f
9:24 21 24 mph 1013.7mb 59f 63f
9:18  -  mph 1013.6mb 59f 62f
9:12  -  mph 1013.5mb 59f 63f
9:06  -  mph 1013.3mb 59f 63f
9:00  -  mph 1013.3mb 59f 63f
8:54  -  mph 1013.2mb 59f 63f
8:48 17 22 mph 1013.1mb 59f 63f
8:42 15 21 mph 1012.9mb 59f 63f
8:36 13 16 mph 1012.8mb 59f 63f
8:30 14 17 mph - 59f 63f
8:24 14 20 mph - 59f 63f
8:18 17 24 mph 1012.4mb 59f 63f
8:12 18 22 mph 1012.4mb 59f 63f
8:06 18 21 mph 1012.2mb 59f 64f
8:00 16 21 mph 1012.1mb 59f 64f
7:54 15 21 mph 1011.8mb 60f 64f
7:48  -  mph 1011.7mb 60f -
7:42  -  mph 1011.6mb 60f -
7:36  -  mph 1011.5mb 60f -
7:30 16 25 mph 1011.5mb 60f 64f
7:24 18 25 mph 1011.4mb 60f 65f
7:18  -  mph 1011.2mb 60f 65f
7:12  -  mph 1011.1mb 60f 65f
7:06  -  mph 1010.8mb 60f 65f
7:00  -  mph 1011mb 60f 65f
6:54  -  mph 1011mb 60f 65f
6:48 20 25 mph - 60f -
6:42 17 23 mph - 60f -
6:36 18 24 mph - 60f -
6:30 22 30 mph - 60f 66f
6:24 23 29 mph - 60f 66f
6:18 24 28 mph - 60f 66f
6:12 22 29 mph - 60f 66f
6:06 23 28 mph - 60f 66f
6:00 26 31 mph 1009.7mb 60f 66f
5:54 23 30 mph 1009.6mb 60f 66f
5:48 26 32 mph - 60f 66f
5:42 22 31 mph - 60f 67f
5:36 26 29 mph - 60f 67f
5:30 26 31 mph 1009.2mb 59f 67f
5:24 23 29 mph 1009.1mb 59f 67f
5:18 25 31 mph 1009mb 59f 67f
5:12 23 28 mph 1009mb 59f 68f
5:06 22 29 mph 1008.9mb 59f 69f
5:00 23 29 mph 1008.7mb 58f 69f
4:54 16 23 mph 1008.8mb 58f 68f
4:48 20 26 mph 1008.6mb 58f 69f
4:42 24 29 mph 1008.4mb 59f 69f
4:36 22 30 mph 1008.3mb 59f 69f
4:30 22 30 mph 1008.1mb 58f 70f
4:24 18 25 mph 1008mb 58f 70f
4:18 24 29 mph 1007.8mb 59f 70f
4:12 22 26 mph 1007.8mb 59f 70f
4:06 20 23 mph 1007.7mb 59f 69f
4:00 18 23 mph 1007.7mb 59f 70f
3:54 23 28 mph 1007.6mb 59f 70f
3:48 22 26 mph 1007.4mb 59f 71f
3:42 20 24 mph 1007.4mb 59f 71f
3:36 21 28 mph 1007.3mb 58f 71f
3:30 21 24 mph 1007.2mb 58f 70f
3:24 21 25 mph 1007.2mb 58f 71f
3:18 18 22 mph 1007.2mb 59f 70f
3:12 18 23 mph 1007.1mb 59f 71f
3:06 16 22 mph 1007.1mb 58f 70f
3:00 14 21 mph 1007mb 59f 69f
2:54 17 21 mph 1007mb 59f 70f
2:48 17 24 mph 1006.9mb - -
2:42 13 16 mph 1006.9mb - -
2:36 10 16 mph 1006.9mb - -
2:30 9 14 mph 1006.9mb - -
2:24 14 16 mph 1006.8mb - -
2:18 15 17 mph 1006.8mb 58f 69f
2:12 17 23 mph 1006.6mb 58f 69f
2:06 17 22 mph 1006.6mb 59f 69f
2:00 17 23 mph 1006.5mb 59f 69f
1:54 17 21 mph 1006.4mb 58f 69f
1:48 17 21 mph 1006.4mb 58f 69f
1:42 16 22 mph 1006.3mb 58f 69f
1:36 17 22 mph 1006.2mb 58f 71f
1:30 20 22 mph 1006.1mb 59f 71f
1:24 17 20 mph 1006.1mb 58f 70f
1:18 16 21 mph 1006.1mb 57f 70f
1:12 17 23 mph 1006.1mb 57f 69f
1:06 16 18 mph 1006.1mb 57f 69f
1:00 17 21 mph 1006.1mb 57f 69f
12:54 16 20 mph 1006.1mb 57f 69f
12:48 17 20 mph 1006mb 58f 69f
12:42 17 21 mph 1006mb 57f 68f
12:36 13 15 mph 1006mb 57f 67f
12:30 13 15 mph 1006mb 58f 67f
12:24 11 14 mph 1006mb 57f 67f
12:18 11 14 mph 1005.9mb 58f 67f
12:12 13 16 mph 1006mb 58f 67f
12:06 14 17 mph 1005.9mb 58f 66f
12:00 14 20 mph 1005.8mb 58f 67f
11:54 18 23 mph 1005.7mb 58f 67f
11:48 18 22 mph 1005.7mb 58f 67f
11:42 17 21 mph 1005.6mb 58f 67f
11:36 15 16 mph 1005.6mb 58f 67f
11:30 15 23 mph 1005.4mb 58f 67f
11:24 17 21 mph 1005.3mb 58f 67f
11:18 17 21 mph 1005.2mb 58f 68f
11:12 14 22 mph 1005.1mb 58f 69f
11:06 13 17 mph 1005mb 58f 69f
11:00 8 15 mph 1005mb 58f 69f
10:54 8 15 mph 1005mb 58f 69f
10:48 11 18 mph 1004.9mb 58f 69f
10:42 10 17 mph 1004.9mb 58f 69f
10:36 10 16 mph 1004.8mb 58f 70f
10:30 7 14 mph 1004.7mb 58f 70f
10:24 7 16 mph 1004.6mb 58f 70f
10:18 6 14 mph 1004.7mb 58f 70f
10:12 11 16 mph 1004.8mb 58f 70f
10:06 8 14 mph 1004.8mb 58f 68f
10:00 7 17 mph 1005mb 58f 68f
9:54 11 18 mph 1005.1mb 58f 69f
9:48 5 14 mph 1005.1mb 58f 69f
9:42 6 9 mph 1005mb 58f 69f
9:36 6 9 mph 1005.1mb 58f 68f
9:30 5 9 mph 1005.2mb 58f 68f
9:24 7 11 mph 1005mb 58f 68f
9:18 6 11 mph 1005.2mb 58f 67f
9:12 5 13 mph 1005.2mb 58f 67f
9:06 5 9 mph 1005.3mb 58f 67f
9:00 8 10 mph 1005.4mb 58f 64f
8:54 9 13 mph 1005.3mb 58f 63f
8:48 6 10 mph 1005.4mb 58f 65f
8:42 3 11 mph 1005.5mb 58f 67f
8:36 8 10 mph 1005.6mb 58f 63f
8:30 5 7 mph 1005.6mb 58f 66f
8:24 6 8 mph 1005.7mb 58f 68f
8:18 6 7 mph 1005.7mb 58f 69f
8:12 6 8 mph 1005.8mb 58f 69f
8:06 5 6 mph 1005.8mb 58f 69f
8:00 3 6 mph 1005.9mb 58f 69f
7:54 3 10 mph 1005.9mb 58f 69f
7:48 3 11 mph 1006mb 58f 69f
7:42 3 9 mph 1006mb 58f 69f
7:36 6 11 mph 1006.1mb 58f 69f
7:30 6 13 mph 1006mb 58f 69f
7:24 5 11 mph 1006mb 58f 70f
7:18 5 10 mph 1006mb 58f 70f
7:12 6 9 mph 1006mb 58f 69f
7:06 5 8 mph 1006mb 58f 69f
7:00 2 5 mph 1005.9mb 58f 69f
6:54 2 6 mph 1006mb 58f 68f
6:48 2 9 mph 1006.1mb 58f 68f
6:42 3 7 mph 1006mb 59f 68f
6:36 1 5 mph 1006.2mb 59f 68f
6:30 2 9 mph 1006.2mb 59f 68f
6:24 5 9 mph 1006.4mb 58f 68f
6:18 6 9 mph 1006.4mb 58f 68f
6:12 5 10 mph 1006.5mb 58f 68f
6:06 6 11 mph 1006.5mb 58f 68f
6:00 6 13 mph 1006.4mb 58f 68f
5:54 6 13 mph 1006.5mb 58f 68f
5:48 8 10 mph 1006.5mb 58f 67f
5:42 6 13 mph 1006.6mb 58f 67f
5:36 5 13 mph 1006.6mb 58f 67f
5:30 6 13 mph 1006.6mb 58f 67f
5:24 8 13 mph 1006.7mb 58f 67f
5:18 8 15 mph 1006.7mb 58f 67f
5:12 7 11 mph 1006.7mb 58f 67f
5:06 7 14 mph 1006.7mb 59f 67f
5:00 7 15 mph 1006.8mb 59f 67f
4:54 8 13 mph 1007mb 58f 67f
4:48 10 14 mph 1007mb 59f 67f
4:42 8 14 mph 1007mb 58f 66f
4:36 6 8 mph 1007.2mb 59f 66f
4:30 5 10 mph 1007.3mb 58f 66f
4:24 5 9 mph 1007.3mb 58f 64f
4:18 7 9 mph 1007.4mb 58f 64f
4:12 8 9 mph 1007.5mb 58f 64f
4:06 7 9 mph 1007.5mb 58f 63f
4:00 9 10 mph 1007.6mb 58f 63f
3:54 7 10 mph 1007.7mb 58f 64f
3:48 7 10 mph 1007.9mb 58f 63f
3:42 7 10 mph 1008mb 58f 64f
3:36 7 9 mph 1008.1mb 58f 64f
3:30 8 10 mph 1008.1mb 58f 63f
3:24 8 10 mph 1008.1mb 58f 63f
3:18 8 9 mph 1008.2mb 58f 63f
3:12 9
mph
1008.3mb 58f 63f
3:06 7 8 mph 1008.5mb 58f 63f
3:00 6 9 mph 1008.6mb 58f 63f
2:54 7 9 mph 1008.7mb 58f 64f
2:48 7 9 mph 1008.7mb 58f -
2:42 7 9 mph 1008.8mb 59f -
2:36 6 9 mph 1008.8mb 59f -
2:30 6 9 mph 1008.8mb 59f 63f
2:24 7 10 mph 1008.9mb 59f 63f
2:18 8 10 mph 1008.9mb 59f 62f
2:12 7 9 mph 1009mb 58f 61f
2:06 8 10 mph 1009.1mb 58f 61f
2:00 7 10 mph 1009.2mb 58f 61f
1:54 8 11 mph 1009.3mb 58f 62f
1:48 8 10 mph - - -
1:42 8 11 mph - - -
1:36 8 11 mph - - -
1:30 7 11 mph 1009.6mb 58f 62f
1:24 8 11 mph 1009.7mb 58f 62f
1:18 8 10 mph 1009.8mb 58f 62f
1:12 6 7 mph 1009.9mb 58f 63f
1:06 3 7 mph 1010mb 58f 62f
1:00 5 8 mph 1010.1mb 58f 62f
12:54 6 8 mph 1010.1mb 58f 62f
12:48 5 8 mph 1010.2mb 58f 62f
12:42 6 9 mph 1010.3mb 58f 62f
12:36 6 9 mph 1010.5mb 58f 62f
12:30 6 9 mph 1010.6mb 58f 62f
12:24 6 9 mph 1010.5mb 58f 62f
12:18 8 10 mph 1010.7mb 58f 62f
12:12 7 9 mph 1010.8mb 58f 61f
12:06 6 8 mph 1010.9mb 58f 62f
12:00 6 9 mph 1011mb 58f 62f
So 08/21 11:54 5 8 mph 1011.1mb 58f 62f
11:48 5 6 mph 1011.1mb 58f 62f
11:42 3 6 mph 1011.1mb 58f 62f
11:36 3 7 mph 1011.1mb 58f 61f
11:30 6 8 mph 1011mb 58f 61f
11:24 6 8 mph 1011mb 58f 61f
11:18 7 8 mph 1011.1mb 58f 61f
11:12 5 8 mph 1011.3mb 58f 61f
11:06 6 8 mph 1011.4mb 58f 61f
11:00 5 7 mph 1011.6mb 58f 60f
10:54 6 8 mph 1011.7mb 58f 60f
10:48 6 7 mph 1011.8mb 58f 60f
10:42 5 7 mph 1011.9mb 58f 60f
10:36 5 8 mph 1011.9mb 58f 60f
10:30  -  mph 1012.1mb 58f 60f
10:24  -  mph 1012.2mb 58f 60f
10:18 7 8 mph 1012.3mb 58f 60f
10:12 6 7 mph 1012.2mb 58f 60f
10:06 5 7 mph 1012.4mb 58f 60f
10:00  -  mph 1012.5mb 58f 60f
9:54  -  mph 1012.6mb 58f 60f
9:48  -  mph - 58f -
9:42  -  mph - 58f -
9:36  -  mph - 58f -
9:30  -  mph 1012.6mb 58f 60f
9:24  -  mph 1012.5mb 59f 60f
9:18  -  mph - 59f 60f
9:12  -  mph - 59f 60f
9:06  -  mph - 59f 60f
9:00  -  mph 1012.8mb 59f 60f
8:54  -  mph 1012.9mb 59f 60f
8:48 6 8 mph - 59f 60f
8:42 6 10 mph - 59f 61f
8:36 7 9 mph - 59f 61f
8:30 7 9 mph - 59f 61f
8:24 6 8 mph - 59f 61f
8:18  -  mph - 59f 61f
8:12  -  mph - 59f 61f
8:06  -  mph - 59f 61f
8:00  -  mph 1012.7mb 59f 61f
7:54  -  mph 1012.7mb 59f 61f
7:48  -  mph 1012.7mb 59f -
7:42  -  mph 1012.6mb 59f -
7:36  -  mph 1012.6mb 59f -
7:30  -  mph 1012.7mb 59f 62f
7:24  -  mph 1012.7mb 59f 62f
7:18 5 7 mph 1012.6mb 59f 62f
7:12 6 8 mph 1012.8mb 59f 62f
7:06 6 7 mph 1012.8mb 59f 62f
7:00 3 6 mph 1012.9mb 59f 62f
6:54 3 6 mph 1012.8mb 59f 62f
6:48  -  mph - 59f -
6:42  -  mph - 59f -
6:36  -  mph - 59f -
6:30  -  mph 1012.8mb 59f 62f
6:24  -  mph 1012.7mb 59f 62f
6:18  -  mph 1012.7mb 59f 62f
6:12  -  mph 1012.7mb 59f 62f
6:06  -  mph 1012.7mb 59f 62f
6:00  -  mph 1012.7mb 59f 62f
5:54  -  mph 1012.6mb 59f 61f
5:48 3 5 mph - 59f 61f
5:42 5
mph
- 59f 61f
5:36 3 8 mph - 59f 61f
5:30 6 9 mph 1012.9mb 59f 61f
5:24 6 8 mph 1012.9mb 59f 61f
5:18 5 7 mph 1013mb 58f 61f
5:12 5 7 mph 1013.1mb 58f 61f
5:06 6 9 mph 1013.1mb 59f 61f
5:00 6 9 mph 1013.2mb 59f 61f
4:54 8 10 mph 1013.2mb 58f 61f
4:48 7 9 mph 1013.3mb 58f 61f
4:42 7 10 mph 1013.4mb 59f 61f
4:36 9 10 mph 1013.4mb 59f 62f
4:30 8 11 mph 1013.5mb 59f 62f
4:24 7 13 mph 1013.5mb 59f 62f
4:18 8 13 mph 1013.4mb 59f 62f
4:12 7 13 mph 1013.5mb 59f 62f
4:06 9 13 mph 1013.5mb 58f 61f
4:00 9 13 mph 1013.5mb 58f 61f
3:54 9 13 mph 1013.6mb 58f 61f
3:48 10 11 mph 1013.7mb 58f 60f
3:42 9 10 mph 1013.7mb 58f 60f
3:36 10 11 mph 1013.9mb 58f 60f
3:30 9 11 mph 1014mb 58f 60f
3:24 9 10 mph 1014.2mb 58f 60f
3:18 8 10 mph 1014.3mb 58f 60f
3:12 8 9 mph 1014.4mb 58f 61f
3:06 7
mph
1014.6mb 58f 61f
3:00 5 7 mph 1014.7mb 58f 61f
2:54 6 8 mph 1014.7mb 58f 61f
2:48 7 9 mph 1014.6mb 58f 61f
2:42 8 9 mph 1014.6mb 57f 61f
2:36 8 9 mph 1014.8mb 56f 61f
2:30 7 8 mph 1014.8mb 57f 61f
2:24 5 6 mph 1014.9mb 57f 61f
2:18 5
mph
1015mb 57f 61f
2:12 3 5 mph 1015mb 57f 60f
2:06 5 6 mph 1015mb 56f 60f
2:00 6
mph
1015.1mb 56f 60f
1:54 5 6 mph 1015.2mb 57f 60f
1:48 5 6 mph 1015.2mb 56f 60f
1:42 5 6 mph 1015.3mb 57f 60f
1:36 2 5 mph 1015.3mb 57f 61f
1:30 3 6 mph 1015.2mb 57f 60f
1:24 3 7 mph 1015.3mb 58f 61f
1:18 6 7 mph 1015.3mb 59f 60f
1:12 6 9 mph 1015.4mb 59f 61f
1:06 6 10 mph 1015.5mb 59f 61f
1:00 7 10 mph 1015.5mb 58f 61f
12:54 7 9 mph 1015.6mb 58f 61f
12:48 7 10 mph 1015.7mb 59f 61f
12:42 9 11 mph 1015.6mb 59f 60f
12:36 10 11 mph 1015.7mb 58f 60f
12:30 8 10 mph 1015.8mb 58f 60f
12:24 9 10 mph 1015.9mb 58f 60f
12:18 8 9 mph 1015.9mb 58f 61f
12:12 7 10 mph 1015.9mb 58f 61f
12:06 8 10 mph 1015.8mb 58f 61f
12:00 8 11 mph 1015.7mb 58f 61f
11:54 6 9 mph 1015.6mb 58f 61f
11:48 8 9 mph 1015.6mb 58f 61f
11:42 7 9 mph 1015.7mb 58f 60f
11:36 7 9 mph 1015.8mb 58f 60f
11:30 8 11 mph 1015.9mb 58f 60f
11:24 9 11 mph 1015.9mb 58f 60f
11:18 9 13 mph 1016mb 58f 60f
11:12 11 13 mph 1016.1mb 58f 60f
11:06 11 13 mph 1016.1mb 58f 60f
11:00 9 10 mph 1016.1mb 58f 59f
10:54 9 10 mph 1016.2mb 58f 59f
10:48 8 9 mph 1016.2mb 59f 59f
10:42 7 10 mph 1016.3mb 59f 59f
10:36 7 9 mph 1016.3mb 59f 59f
10:30 8 9 mph 1016.3mb 58f 59f
10:24 9
mph
1016.3mb 58f 59f
10:18 9 10 mph 1016.4mb 58f 59f
10:12 9 11 mph 1016.4mb 58f 59f
10:06 7 11 mph 1016.6mb 58f 60f
10:00 7 10 mph 1016.6mb 58f 60f
9:54 8 11 mph 1016.6mb 58f 60f
9:48 7 11 mph 1016.6mb 58f 60f
9:42 7 11 mph 1016.4mb 58f 60f
9:36 8 14 mph 1016.4mb 58f 60f
9:30 9 14 mph 1016.5mb 58f 60f
9:24 8 14 mph 1016.4mb 58f 60f
9:18 10 15 mph 1016.5mb 58f 60f
9:12 9 14 mph 1016.4mb 58f 60f
9:06 8 13 mph 1016.4mb 58f 60f
9:00 7 14 mph 1016.4mb 58f 60f
8:54 7 14 mph 1016.4mb 58f 60f
8:48 9 13 mph 1016.3mb 58f 60f
8:42 11 15 mph 1016.4mb 58f 60f
8:36 10 16 mph 1016.4mb 58f 60f
8:30 11 14 mph 1016.3mb 58f 60f
8:24 11 14 mph 1016.3mb 58f 60f
8:18 9 13 mph 1016.3mb 58f 60f
8:12 10 13 mph 1016.3mb 58f 59f
8:06 9 13 mph 1016.3mb 58f 60f
8:00 9 13 mph 1016.2mb 58f 59f
7:54 9 11 mph 1016.2mb 58f 59f
7:48 9 11 mph 1016.2mb 58f 59f
7:42 10 13 mph 1016.3mb 58f 60f
7:36 11 14 mph 1016.2mb 58f 60f
7:30 11 14 mph 1016.2mb 58f 60f
7:24 11 15 mph 1016.3mb 58f 60f
7:18 14 16 mph 1016.3mb 58f 60f
7:12 14 15 mph 1016.3mb 58f 60f
7:06 11 14 mph 1016.3mb 58f 60f
7:00 10 13 mph 1016.2mb 58f 60f
6:54 9 13 mph 1016.2mb 58f 60f
6:48 9 13 mph 1016.1mb 58f 60f
6:42 11 15 mph 1016.1mb 58f 60f
6:36 11 15 mph 1016.1mb 58f 60f
6:30 9 13 mph 1016.1mb 58f 61f
6:24 8 10 mph 1016.1mb 58f 61f
6:18 9 11 mph 1016.2mb 58f 61f
6:12 9 11 mph 1016.2mb 58f 61f
6:06 7 9 mph 1016.2mb 58f 61f
6:00 8 9 mph 1016.1mb 58f 61f
5:54 2 6 mph 1016mb 58f 63f
5:48 3 8 mph 1015.9mb 58f 63f
5:42 2 5 mph 1016mb 58f 63f
5:36 2 6 mph 1016mb 57f 63f
5:30 1 8 mph 1016mb 58f 63f
5:24 5 9 mph 1016mb 58f 63f
5:18 2 7 mph 1015.9mb 58f 63f
5:12 5 9 mph 1015.9mb 58f 63f
5:06 5 9 mph 1015.9mb 58f 64f
5:00 6 11 mph 1015.8mb 58f 64f
4:54 8 10 mph 1015.8mb 58f 64f
4:48 6 10 mph 1015.7mb 58f 64f
4:42 8 13 mph 1015.7mb 58f 64f
4:36 9 13 mph 1015.7mb 58f 64f
4:30 6 14 mph 1015.7mb 58f 64f
4:24 10 15 mph 1015.7mb 58f 64f
4:18 9 14 mph 1015.6mb 58f 64f
4:12 8 14 mph 1015.7mb 58f 64f
4:06 8 13 mph 1015.6mb 58f 64f
4:00 9 15 mph 1015.6mb 58f 64f
3:54 6 14 mph 1015.5mb 58f 64f
3:48 9 11 mph 1015.6mb 58f 64f
3:42 7 11 mph 1015.6mb 58f 64f
3:36 8 11 mph 1015.6mb 58f 63f
3:30 8 10 mph 1015.7mb 58f 63f
3:24 6 10 mph 1015.8mb 58f 63f
3:18 6 10 mph 1015.7mb 58f 63f
3:12 6 9 mph 1015.7mb 58f 63f
3:06 6 9 mph 1015.6mb 58f 63f
3:00 6 10 mph 1015.7mb 58f 63f
2:54 7 10 mph 1015.7mb 58f 63f
2:48 8 10 mph 1015.7mb 58f 63f
2:42 8 10 mph 1015.7mb 58f 63f
2:36 7 10 mph 1015.6mb 58f 63f
2:30 6 8 mph 1015.8mb 58f 63f
2:24 5 9 mph 1015.8mb 58f 63f
2:18 6 10 mph 1015.9mb 58f 64f
2:12 7 10 mph 1015.8mb 58f 64f
2:06 7 11 mph 1015.8mb 58f 64f
2:00 8 11 mph 1015.7mb 58f 64f
1:54 6 14 mph 1015.7mb 58f 64f
1:48 6 9 mph 1015.8mb 58f -
1:42 6 10 mph 1015.8mb 58f -
1:36 6 9 mph 1015.8mb 58f -
1:30 8 13 mph 1015.9mb 58f 64f
1:24 9 13 mph 1015.8mb 58f 64f
1:18 8 11 mph 1015.9mb 59f 64f
1:12 9 13 mph 1015.9mb 59f 64f
1:06 9 11 mph 1016mb 59f 63f
1:00 7 11 mph 1016mb 59f 63f
12:54 6 9 mph 1016.1mb 59f 63f
12:48 6 11 mph 1016.1mb 59f 63f
12:42 6 11 mph 1016mb 59f 63f
12:36 6 13 mph 1016.1mb 58f 64f
12:30 7 14 mph 1016mb 58f 64f
12:24 9 13 mph 1016mb 58f 63f
12:18 6 10 mph 1016.1mb 58f 63f
12:12 5 8 mph 1016.2mb 58f 64f
12:06 2 5 mph 1016.2mb 58f 64f
12:00 5 7 mph 1016.2mb 58f 64f
Sa 08/20 11:54 2 5 mph 1016.2mb 58f 63f
11:48 2 5 mph 1016.1mb 58f 63f
11:42 1 2 mph 1016.2mb 58f 63f
11:36  -  2 mph 1016.3mb 58f 63f
11:30  -  6 mph 1016.4mb 58f 62f
11:24 1 2 mph 1016.3mb 58f 63f
11:18 2 9 mph 1016.2mb 58f 63f
11:12 8 15 mph 1016.2mb 58f 63f
11:06 10 14 mph 1016.1mb 58f 64f
11:00 6 10 mph 1016.1mb 58f 63f
10:54 8 11 mph 1016.1mb 58f 63f
10:48 6 10 mph 1016mb 58f 63f
10:42 7 10 mph 1016.1mb 58f 63f
10:36 7 13 mph 1016.1mb 58f 62f
10:30 6 13 mph - 59f 62f
10:24 7 13 mph - 59f 62f
10:18 6 10 mph 1016.1mb 59f 61f
10:12 8 10 mph 1016.1mb 59f 61f
10:06 6 9 mph 1016.1mb 59f 60f
10:00  -  mph 1016.2mb 58f 59f
9:54  -  mph 1016.1mb 58f 59f
9:48  -  mph - 58f 58f
9:42  -  mph - 58f 58f
9:36  -  mph - 58f 59f
9:30 8 9 mph 1016.3mb 58f 59f
9:24 8 10 mph 1016.2mb 59f 59f
9:18 8 10 mph 1016.2mb 59f 58f
9:12 8 9 mph 1016.3mb 60f 58f
9:06 6 7 mph 1016.3mb 60f 59f
9:00  -  mph 1016.4mb 60f 59f
8:54  -  mph 1016.4mb 60f 59f
8:48  -  mph 1016.3mb 60f 59f
8:42  -  mph 1016.3mb 60f 59f
8:36  -  mph 1016.4mb 60f 60f
8:30 8 10 mph 1016.3mb 60f 60f
8:24 6 11 mph 1016.1mb 60f 60f
8:18  -  mph - 60f 60f
8:12  -  mph - 60f 59f
8:06  -  mph - 60f 60f
8:00 7 11 mph 1015.9mb 60f 60f
7:54 7 10 mph 1015.8mb 60f 60f
7:48  -  mph 1015.8mb 60f -
7:42  -  mph 1015.7mb 60f -
7:36  -  mph 1015.7mb 60f -
7:30 7 10 mph - 60f 59f
7:24 8 10 mph - 60f 59f
7:18 9 13 mph - 60f 59f
7:12 8 14 mph - 60f 59f
7:06 9 13 mph - 60f 59f
7:00 2 5 mph 1015.6mb 60f 59f
6:54 2 5 mph 1015.6mb 60f 59f
6:48  -  mph 1015.7mb - -
6:42  -  mph 1015.6mb - -
6:36  -  mph 1015.7mb - -
6:30 6 10 mph 1015.6mb 60f 58f
6:24 8 13 mph 1015.6mb 60f 58f
6:18  -  mph - 60f 58f
6:12  -  mph - 60f 58f
6:06  -  mph - 60f 58f
6:00 10 15 mph 1015.7mb 60f -
5:54 9 14 mph 1015.6mb 60f -
5:48 9 14 mph - 60f 58f
5:42 9 14 mph - 60f 58f
5:36 10 14 mph - 60f 58f
5:30 10 14 mph 1015.7mb 60f 58f
5:24 9 14 mph 1015.7mb 60f 58f
5:18 10 16 mph 1015.7mb 60f 58f
5:12 10 14 mph 1015.7mb 60f 58f
5:06 11 15 mph 1015.8mb 60f 58f
5:00 13 16 mph 1015.9mb 60f 58f
4:54 13 15 mph 1015.9mb 61f 58f
4:48 13 15 mph 1015.8mb 60f 58f
4:42 13 15 mph 1015.8mb 60f 59f
4:36 13 15 mph 1015.8mb 60f 59f
4:30 10 15 mph 1015.9mb 60f 59f
4:24 11 16 mph 1015.9mb 60f 59f
4:18 11 15 mph 1015.9mb 60f 59f
4:12 11 14 mph 1016mb 60f 59f
4:06 11 16 mph 1015.9mb 60f 59f
4:00 11 16 mph 1016mb 60f 60f
3:54 13 15 mph 1016mb 60f 59f
3:48 10 14 mph 1016mb 60f 59f
3:42 11 14 mph 1015.9mb 60f 59f
3:36 11 15 mph 1016mb 60f 59f
3:30 10 15 mph 1016mb 60f 59f
3:24 10 15 mph 1016.1mb 60f 60f
3:18 10 15 mph 1016mb 60f 60f
3:12 11 15 mph 1016mb 60f 59f
3:06 11 15 mph 1016mb 60f 60f
3:00 11 16 mph 1016mb 60f 60f
2:54 11 16 mph 1016mb 60f 60f
2:48 13 17 mph 1016mb 60f 59f
2:42 11 15 mph 1016mb 60f 60f
2:36 13 16 mph 1016.1mb 60f 60f
2:30 14 16 mph 1016.1mb 60f 60f
2:24 13 16 mph 1016.1mb 60f 60f
2:18 11 18 mph 1016.1mb 60f 60f
2:12 11 18 mph 1016mb 60f 61f
2:06 11 17 mph 1016.1mb 60f 61f
2:00 11 16 mph 1016mb 60f 61f
1:54 10 15 mph 1016mb 60f 62f
1:48 10 16 mph 1016.1mb 60f 62f
1:42 10 15 mph 1016.2mb 60f 62f
1:36 11 17 mph 1016.2mb 60f 62f
1:30 11 17 mph 1016.2mb 60f 63f
1:24 11 16 mph 1016.3mb 61f 62f
1:18 11 17 mph 1016.2mb 61f 63f
1:12 11 16 mph 1016.3mb 62f 64f
1:06 10 16 mph 1016.2mb 61f 63f
1:00 10 15 mph 1016.2mb 61f 63f
12:54 10 15 mph 1016.2mb 61f 64f
12:48 10 15 mph 1016.3mb 62f 64f
12:42 10 15 mph 1016.3mb 61f 64f
12:36 9 14 mph 1016.3mb 61f 64f
12:30 10 15 mph 1016.4mb 61f 64f
12:24 8 14 mph 1016.4mb 60f 65f
12:18 8 14 mph 1016.4mb 60f 64f
12:12 10 14 mph 1016.4mb 59f 64f
12:06 10 14 mph 1016.4mb 59f 64f
12:00 10 14 mph 1016.5mb 59f 64f
11:54 9 15 mph 1016.5mb 59f 65f
11:48 9 15 mph 1016.5mb 59f 65f
11:42 9 14 mph 1016.5mb 58f 65f
11:36 10 14 mph 1016.6mb 58f 65f
11:30 8 13 mph 1016.6mb 59f 65f
11:24 9 13 mph 1016.6mb 59f 65f
11:18 9 11 mph 1016.6mb 58f 65f
11:12 9 11 mph 1016.7mb 58f 65f
11:06 9 11 mph 1016.7mb 58f 65f
11:00 7 10 mph 1016.7mb 59f 66f
10:54 7 10 mph 1016.7mb 59f 66f
10:48 8 13 mph 1016.7mb 59f 66f
10:42 7 10 mph 1016.6mb 59f 66f
10:36 7 10 mph 1016.7mb 59f 66f
10:30 7 10 mph 1016.6mb 59f 66f
10:24 9 11 mph 1016.5mb 59f 66f
10:18 8 10 mph 1016.4mb 59f 66f
10:12 7 15 mph 1016.3mb 59f 66f
10:06 6 11 mph 1016.3mb 59f 67f
10:00 5 10 mph 1016.2mb 59f 67f
9:54 7 9 mph 1016.2mb 60f 66f
9:48 8 9 mph 1016.1mb 60f 66f
9:42 6 8 mph 1016.1mb 60f 67f
9:36 6 8 mph 1016.1mb 60f 66f
9:30 6 7 mph 1016.1mb 60f 66f
9:24 6 7 mph 1016.1mb 60f 66f
9:18 6 7 mph 1016.1mb 60f 65f
9:12 5 6 mph 1016.2mb 59f 66f
9:06 3 5 mph 1016mb 59f 65f
9:00 3 5 mph 1016mb 59f 65f
8:54 3
mph
1016mb 60f 66f
8:48 2 3 mph 1016mb 60f 66f
8:42 2 5 mph 1016mb 60f 66f
8:36 3 5 mph 1015.9mb 60f 65f
8:30 3 5 mph 1015.9mb 60f 65f
8:24 2 3 mph 1015.8mb 60f 65f
8:18 2 3 mph 1015.9mb 60f 65f
8:12 2 3 mph 1015.9mb 60f 64f
8:06 2 3 mph 1015.8mb 60f 65f
8:00 1 2 mph 1015.7mb 61f 65f
7:54 2
mph
1015.7mb 61f 64f
7:48 1 2 mph 1015.6mb 61f 65f
7:42  -  2 mph 1015.6mb 62f 64f
7:36 1 2 mph 1015.6mb 62f 64f
7:30  -  1 mph 1015.7mb 62f 64f
7:24  -  1 mph 1015.6mb 62f 65f
7:18  -  2 mph 1015.7mb 62f 64f
7:12  -  1 mph 1015.7mb 62f 64f
7:06  -  1 mph 1015.8mb 62f 63f
7:00  -  1 mph 1015.8mb 62f 62f
6:54 1 2 mph 1015.8mb 62f 61f